Flag for Germany Weather past 2 weeks in Pirna, Saxony, Germany

Now
47 °F

Overcast.


Feels Like: 47 °F
Forecast: 36 / 54 °F
Wind: 2 mph from Southeast

Location: Dresden-Klotzsche

Current Time: Oct 24, 2014 at 3:12:44 PM

Latest Report: Oct 24, 2014 at 2:00 PM


Visibility: 10 mi

Pressure: 30.26 "Hg

Humidity: 86%

Dew point: 43 °F

Location of PirnaLocation

Historic Weather in Pirna — Graph

°F

Pirna temperature yesterday

Maximum temperature yesterday: 51 °F (at 4:00 PM)
Minimum temperature yesterday: 48 °F (at 10:00 PM)
Average temperature yesterday: 50 °F

Past Weeks' High & Low Weather Summary

 TemperatureHumidityPressure
High70 °F (Oct 19, 4:00 PM)99% (Oct 22, 10:00 PM)30.29 "Hg (Oct 22, 10:00 PM)
Low43 °F (Oct 22, 10:00 AM)55% (Oct 21, 3:00 PM)29.47 "Hg (Oct 21, 11:00 PM)
Average57 °F85%29.92 "Hg
* Reported Oct 9 2:00 PM — Oct 24 2:00 PM, Pirna, Weather by CustomWeather, © 2014

Note: Actual official high and low records may vary slightly from our data, if they occured in-between our weather recording intervals... More about our weather records

Advertising

Pirna weather history for previous 24 hours

 ConditionsComfort  
Time TempWeatherWind HumidityBarometerVisibility
2:00 PM
Oct 24
47 °FOvercast.2 mph86%30.26 "Hg10 mi
1:00 PM47 °FLow clouds.3 mph88%30.27 "Hg8 mi
12:00 PM47 °FLow clouds.2 mph87%30.28 "Hg7 mi
10:00 AM46 °FLow clouds.2 mph91%30.29 "Hg6 mi
9:00 AM46 °FLow clouds.2 mph92%30.28 "Hg5 mi
8:00 AM44 °FLow clouds.2 mph94%30.27 "Hg5 mi
7:00 AM44 °FOvercast.1 mph94%30.27 "Hg5 mi
6:00 AM44 °FPassing clouds.2 mph93%30.27 "Hg6 mi
5:00 AM45 °FPassing clouds.2 mph93%30.26 "Hg6 mi
4:00 AM46 °FOvercast.1 mph91%30.25 "Hg7 mi
3:00 AM46 °FOvercast.1 mph90%30.26 "Hg7 mi
2:00 AM46 °FOvercast.No wind89%30.26 "Hg7 mi
1:00 AM46 °FOvercast.1 mph91%30.26 "Hg7 mi
12:00 AM46 °FOvercast.No wind90%30.26 "Hg7 mi
10:00 PM
Oct 23
48 °FOvercast.2 mph90%30.25 "Hg7 mi
9:00 PM49 °FOvercast.1 mph90%30.23 "Hg7 mi
8:00 PM49 °FOvercast.1 mph89%30.22 "Hg7 mi
7:00 PM49 °FOvercast.2 mph90%30.21 "Hg6 mi
6:00 PM50 °FOvercast.3 mph88%30.20 "Hg7 mi
4:00 PM51 °FOvercast.5 mph87%30.17 "Hg8 mi
3:00 PM51 °FOvercast.5 mph86%30.16 "Hg7 mi
Weather by CustomWeather, © 2014

See weather overviewHow to use our weather pages